Location: Bryzozowice
(50.3667°N, 18.9667°E)
Time: 10:23:37
(UTC+00:00)

Cosmos 1140 Rocket - Pass Details

Date: 24 January 2020
Orbit: 744 x 768 km, 74.1° (Epoch: 18 February)

Event Time Altitude Azimuth Distance (km) Brightness Sun altitude
Rises 17:57:08 0° 338° (NNW) 3,251 7.0 -24.3°
Reaches altitude 10° 17:59:36 10° 344° (NNW) 2,321 6.2 -24.7°
Enters shadow 18:03:17 39° 13° (NNE) 1,140 4.2 -25.3°
